Lid_Strength_Index
13 11 12 12 11 11 13 14 15 14 13 12 9 9 8 7 6 7 6 6 5 6 6 5 4 4 3 2 2 2 2 2 2 2 1 1 1 1 1 1 1 1 1 1
15 11 11 12 11 10 11 12 13 13 14 11 8 7 7 7 7 7 6 6 5 5 4 4 5 4 3 3 3 3 3 2 2 2 1 2 1 1 1 1 2 1 1 1
16 12 12 14 11 10 10 10 11 13 11 8 9 8 8 7 7 7 6 6 5 5 5 5 5 4 4 3 3 3 2 2 2 2 2 2 1 2 2 2 2 2 2 2
15 14 18 12 9 8 9 9 9 9 9 8 8 7 7 7 6 6 6 5 5 5 5 5 4 4 3 3 3 4 3 3 2 2 2 2 2 2 2 2 2 2 2 2
15 16 13 11 9 9 10 11 9 9 8 8 7 7 8 5 5 5 5 4 5 4 5 5 4 4 4 4 4 4 5 4 3 2 2 2 2 2 2 2 2 2 2 2
15 16 17 12 8 6 7 13 8 8 8 8 7 11 9 6 4 4 4 4 4 5 5 5 4 5 6 5 5 5 4 3 2 2 2 2 2 2 3 2 2 2 2 2
15 15 13 9 8 6 13 11 7 7 7 8 9 8 7 5 5 4 4 4 4 5 5 5 4 6 6 5 6 4 4 2 2 2 2 2 2 2 2 3 2 2 2 2
14 16 16 7 8 11 9 8 7 7 7 7 7 7 7 5 5 5 4 4 5 5 5 5 4 5 5 5 4 4 2 2 2 2 2 1 2 3 2 3 3 3 3 3
12 12 9 8 8 7 7 7 7 7 6 6 7 6 5 5 5 4 4 4 5 5 5 5 4 4 4 3 3 4 3 2 3 2 2 2 3 4 4 4 3 4 4 5
11 10 8 7 7 7 7 7 6 6 6 6 6 6 5 5 5 5 5 5 5 6 5 5 4 3 4 3 3 3 2 2 3 3 3 3 4 4 5 6 5 5 6 7
11 10 8 7 7 6 6 6 6 5 6 6 5 5 6 5 5 5 5 5 6 6 5 5 4 3 3 3 4 4 3 2 3 3 4 4 4 5 5 6 8 7 6 7
12 9 8 8 6 5 5 6 6 5 6 6 5 5 5 5 5 5 6 5 5 4 5 4 4 4 3 3 3 4 3 3 3 4 5 4 3 3 6 8 10 11 13 10
9 7 6 6 4 4 5 5 4 5 5 6 5 5 5 5 4 4 4 4 4 4 4 4 5 4 3 3 4 3 3 5 6 5 5 6 3 4 4 4 8 10 11 11
7 7 7 6 7 5 4 4 3 4 4 5 5 5 4 4 4 4 5 4 3 4 3 4 4 3 3 4 4 3 3 4 4 5 5 6 6 6 4 4 4 3 6 9
7 6 6 7 5 4 4 4 5 5 5 4 4 4 4 4 4 5 5 3 3 3 3 4 4 3 4 4 4 3 3 3 3 3 4 5 4 4 4 5 4 4 4 5
7 7 7 5 5 5 5 5 6 5 5 5 5 4 4 4 4 4 4 3 4 4 3 4 4 4 3 3 4 4 3 3 3 3 3 3 4 4 4 4 5 4 4 4
8 7 6 7 6 6 5 5 5 5 5 5 4 4 4 5 4 4 4 4 4 4 3 3 3 3 4 4 4 4 5 3 3 3 4 5 5 4 4 3 3 4 5 6
7 5 4 5 5 5 5 4 4 4 5 4 4 5 5 6 6 5 4 4 4 4 3 3 3 3 4 4 5 4 5 6 6 6 6 5 5 4 4 3 3 3 4 5
5 5 4 4 4 4 5 5 4 4 3 3 4 4 4 4 5 4 4 4 4 5 4 3 2 4 7 5 5 5 6 7 8 8 7 6 5 5 5 5 4 4 4 4
5 4 4 4 4 4 4 4 4 4 3 3 4 4 4 4 4 3 3 4 4 4 6 6 6 7 6 4 5 8 8 8 9 9 8 8 8 7 8 8 7 7 6 5
5 4 4 4 4 4 4 4 4 4 4 3 4 4 4 3 3 4 6 7 7 8 8 6 7 7 7 7 8 9 9 9 9 10 9 8 8 9 9 9 9 9 9 9
5 4 5 5 4 5 3 3 4 4 4 4 3 3 4 5 5 7 6 8 9 8 8 8 8 7 7 8 10 9 9 9 10 10 10 10 10 10 10 10 10 10 10 10
4 4 4 4 4 4 3 3 3 3 3 3 3 6 7 6 7 9 10 9 9 8 8 8 7 6 7 9 9 10 10 10 10 11 11 10 10 10 10 10 10 9 10 10
4 4 4 5 5 4 5 5 4 4 5 5 6 6 6 7 8 8 8 9 8 9 10 9 8 7 8 10 10 10 10 10 10 11 10 10 10 10 10 10 10 10 10 10
4 4 4 4 5 5 6 5 5 5 5 5 5 6 6 7 9 9 9 9 9 10 10 7 7 8 10 10 10 9 10 10 10 9 9 10 10 10 10 10 10 10 10 10
5 5 4 4 4 5 5 5 6 6 6 6 6 5 6 6 7 7 7 8 9 10 11 11 11 10 9 9 9 9 10 9 9 9 9 10 10 10 10 10 10 10 10 10
5 6 5 5 5 5 5 5 5 5 5 5 6 5 5 5 6 8 8 8 9 9 9 10 9 9 9 9 9 9 9 9 9 9 9 10 10 10 11 11 11 11 11 11